GW5682 Weather Reports


time (UTC)temp
C
wind
direction
speed
KPH
gust
KPH
rain 1hr
cm
rain 24hr
cm
rain mn
cm
humidity
%
barometer
mb
20260906230625 37 90 1.6 4.8 0.00 0.00 0.00 34 1013.3
20260906225649 37 90 6.4 8.0 0.00 0.00 0.00 33 1013.5
20260906224625 37 135 1.6 3.2 0.00 0.00 0.00 34 1013.7
20260906223729 37 135 6.4 8.0 0.00 0.00 0.00 31 1013.6
20260906222645 37 90 3.2 4.8 0.00 0.00 0.00 31 1013.5
20260906221649 37 315 4.8 8.0 0.00 0.00 0.00 31 1013.8
20260906220625 38 45 3.2 4.8 0.00 0.00 0.00 31 1013.6
20260906215709 37 225 1.6 3.2 0.00 0.00 0.00 31 1013.7
20260906214626 37 45 1.6 4.8 0.00 0.00 0.00 31 1013.8
20260906213649 38 135 9.7 11.3 0.00 0.00 0.00 31 1013.7
20260906212625 38 180 3.2 4.8 0.00 0.00 0.00 31 1013.9
20260906211649 37 180 4.8 6.4 0.00 0.00 0.00 32 1013.9
20260906210625 37 180 4.8 6.4 0.00 0.00 0.00 31 1014.3
20260906205649 37 135 8.0 11.3 0.00 0.00 0.00 31 1014.3
20260906204625 38 180 8.0 11.3 0.00 0.00 0.00 31 1014.5
20260906203649 37 90 4.8 6.4 0.00 0.00 0.00 32 1014.3
20260906202625 37 135 1.6 4.8 0.00 0.00 0.00 32 1014.8
20260906201649 37 45 1.6 4.8 0.00 0.00 0.00 33 1014.8
20260906200625 37 23 6.4 8.0 0.00 0.00 0.00 32 1014.9
20260906195113 36 68 4.8 8.0 0.00 0.00 0.00 36 1015.0
20260906194603 37 45 6.4 8.0 0.00 0.00 0.00 32 1014.9
20260906193123 37 135 6.4 11.3 0.00 0.00 0.00 32 1015.1
20260906192103 37 90 4.8 6.4 0.00 0.00 0.00 32 1015.2
20260906191103 37 180 6.4 9.7 0.00 0.00 0.00 33 1015.3
20260906190124 37 45 6.4 9.7 0.00 0.00 0.00 33 1015.3
20260906185104 37 90 4.8 4.8 0.00 0.00 0.00 38 1015.4
20260906184103 37 90 8.0 11.3 0.00 0.00 0.00 39 1015.8
20260906183103 36 135 6.4 8.0 0.00 0.00 0.00 40 1015.7
20260906182100 36 135 8.0 11.3 0.00 0.00 0.00 40 1015.9
20260906180626 35 90 9.7 11.3 0.00 0.00 0.00 41 1016.1
20260906175649 36 45 8.0 11.3 0.00 0.00 0.00 41 1016.2
20260906174625 35 90 6.4 11.3 0.00 0.00 0.00 41 1016.5
20260906173650 36 270 3.2 4.8 0.00 0.00 0.00 41 1016.5
20260906172626 35 135 1.6 3.2 0.00 0.00 0.00 45 1016.6
20260906171709 35 90 3.2 4.8 0.00 0.00 0.00 44 1016.8
20260906170625 35 45 4.8 4.8 0.00 0.00 0.00 44 1016.9
20260906165650 35 135 4.8 4.8 0.00 0.00 0.00 45 1017.1
20260906164646 34 225 4.8 8.0 0.00 0.00 0.00 48 1017.0
20260906163650 34 68 4.8 8.0 0.00 0.00 0.00 49 1017.2
20260906162625 33 90 4.8 8.0 0.00 0.00 0.00 48 1017.0
20260906161649 33 90 8.0 8.0 0.00 0.00 0.00 48 1016.9
20260906160625 33 135 4.8 4.8 0.00 0.00 0.00 51 1016.7
20260906155709 32 135 8.0 11.3 0.00 0.00 0.00 51 1017.0
20260906154713 32 90 3.2 4.8 0.00 0.00 0.00 61 1016.9
20260906153650 31 45 4.8 4.8 0.00 0.00 0.00 61 1016.9
20260906152625 31 135 1.6 4.8 0.00 0.00 0.00 65 1016.8
20260906151649 31 135 1.6 1.6 0.00 0.00 0.00 65 1016.8
20260906150626 31 90 1.6 4.8 0.00 0.00 0.00 67 1016.9
20260906145649 30 0.0 1.6 0.00 0.00 0.00 70 1016.6
20260906144626 29 90 1.6 3.2 0.00 0.00 0.00 71 1016.9
20260906143649 29 90 1.6 3.2 0.00 0.00 0.00 72 1016.7
20260906142626 28 135 4.8 4.8 0.00 0.00 0.00 73 1016.8
20260906141649 28 90 3.2 4.8 0.00 0.00 0.00 74 1016.8
20260906140226 27 135 1.6 1.6 0.00 0.00 0.00 79 1016.8
20260906135113 27 90 1.6 3.2 0.00 0.00 0.00 85 1016.8
20260906134138 26 225 1.6 3.2 0.00 0.00 0.00 88 1016.7
20260906133113 26 135 1.6 3.2 0.00 0.00 0.00 93 1016.6
20260906132138 25 90 1.6 1.6 0.00 0.00 0.00 97 1016.9
20260906131113 24 0.0 1.6 0.00 0.00 0.00 99 1016.7
20260906130218 23 0.0 1.6 0.00 0.00 0.00 99 1016.5
20260906125113 23 0.0 0.0 0.00 0.00 0.00 98 1016.5
20260906123758 23 0.0 0.0 0.00 0.00 0.00 97 1016.4
20260906122625 23 0.0 0.0 0.00 0.00 0.00 96 1016.5
20260906121650 22 0.0 0.0 0.00 0.00 0.00 95 1016.3
20260906120646 23 0.0 0.0 0.00 0.00 0.00 96 1016.2
20260906115649 23 0.0 0.0 0.00 0.00 0.00 95 1016.0
20260906114225 23 0.0 0.0 0.00 0.00 0.00 95 1015.9
20260906113114 23 0.0 0.0 0.00 0.00 0.00 95 1015.8
20260906112137 23 0.0 0.0 0.00 0.00 0.00 95 1015.8
20260906111114 23 0.0 0.0 0.00 0.00 0.00 95 1015.8
20260906105737 23 0.0 0.0 0.00 0.00 0.00 94 1015.8
20260906104625 23 0.0 0.0 0.00 0.00 0.00 94 1015.5
20260906103649 23 0.0 0.0 0.00 0.00 0.00 94 1015.7
20260906102625 23 0.0 0.0 0.00 0.00 0.00 93 1015.6
20260906101649 23 0.0 0.0 0.00 0.00 0.00 93 1015.4
20260906100625 23 0.0 0.0 0.00 0.00 0.00 91 1015.4
20260906095649 23 0.0 0.0 0.00 0.00 0.00 91 1015.3
20260906094604 23 0.0 0.0 0.00 0.00 0.00 91 1015.4
20260906093603 23 0.0 0.0 0.00 0.00 0.00 91 1015.2
20260906092623 23 0.0 0.0 0.00 0.00 0.00 90 1015.1
20260906091203 23 0.0 0.0 0.00 0.00 0.00 90 1014.9
20260906085818 23 0.0 0.0 0.00 0.00 0.00 88 1014.9
20260906084645 23 0.0 0.0 0.00 0.00 0.00 87 1014.8
20260906083649 24 0.0 0.0 0.00 0.00 0.00 86 1014.9
20260906082645 24 0.0 1.6 0.00 0.00 0.00 85 1014.8
20260906081650 24 0.0 0.0 0.00 0.00 0.00 84 1014.9
20260906080626 24 0.0 0.0 0.00 0.00 0.00 83 1014.9
20260906075203 24 0.0 0.0 0.00 0.00 0.00 83 1015.1
20260906074103 25 0.0 0.0 0.00 0.00 0.00 82 1015.0
20260906073103 25 0.0 0.0 0.00 0.00 0.00 81 1014.9
20260906072103 25 0.0 0.0 0.00 0.00 0.00 81 1014.9
20260906071123 25 0.0 0.0 0.00 0.00 0.00 80 1015.0
20260906070103 25 0.0 0.0 0.00 0.00 0.00 80 1015.2
20260906065123 25 45 1.6 1.6 0.00 0.00 0.00 80 1015.1
20260906064103 25 0.0 1.6 0.00 0.00 0.00 78 1015.3
20260906063103 25 0.0 1.6 0.00 0.00 0.00 78 1015.3
20260906062123 25 0.0 0.0 0.00 0.00 0.00 78 1015.1
20260906061103 25 0.0 1.6 0.00 0.00 0.00 77 1015.1
20260906060103 25 135 3.2 4.8 0.00 0.00 0.00 77 1015.3
20260906055103 26 0.0 1.6 0.00 0.00 0.00 76 1015.4
20260906054103 26 0.0 1.6 0.00 0.00 0.00 76 1015.3
20260906053144 26 0.0 0.0 0.00 0.00 0.00 76 1015.4
20260906052123 26 0.0 0.0 0.00 0.00 0.00 75 1015.2
20260906051103 26 90 1.6 1.6 0.00 0.00 0.00 75 1015.2
20260906045103 26 90 1.6 3.2 0.00 0.00 0.00 75 1015.0
20260906044103 26 0.0 0.0 0.00 0.00 0.00 74 1015.3
20260906043103 26 0.0 0.0 0.00 0.00 0.00 74 1015.3
20260906042144 26 0.0 0.0 0.00 0.00 0.00 73 1015.3
20260906041103 27 0.0 0.0 0.00 0.00 0.00 72 1015.1
20260906035103 27 0.0 0.0 0.00 0.00 0.00 71 1015.3
20260906034103 27 0.0 0.0 0.00 0.00 0.00 67 1015.2
20260906033123 27 0.0 0.0 0.00 0.00 0.00 65 1015.2
20260906032103 28 90 1.6 1.6 0.00 0.00 0.00 64 1015.2
20260906031103 28 0.0 0.0 0.00 0.00 0.00 64 1015.2
20260906025103 28 90 1.6 1.6 0.00 0.00 0.00 62 1015.2
20260906024144 28 135 1.6 3.2 0.00 0.00 0.00 62 1015.0
20260906023103 28 180 1.6 3.2 0.00 0.00 0.00 61 1014.7
20260906022103 29 0.0 1.6 0.00 0.00 0.00 60 1014.8
20260906021103 29 90 1.6 3.2 0.00 0.00 0.00 60 1014.6
20260906015103 30 0.0 0.0 0.00 0.00 0.00 58 1014.3
20260906014103 30 90 1.6 1.6 0.00 0.00 0.00 57 1014.3
20260906013103 30 225 1.6 4.8 0.00 0.00 0.00 57 1014.3
20260906012103 31 45 1.6 3.2 0.00 0.00 0.00 55 1014.2
20260906011103 31 45 3.2 6.4 0.00 0.00 0.00 54 1013.9
20260906010103 32 135 3.2 4.8 0.00 0.00 0.00 52 1013.7
20260906005103 32 90 4.8 6.4 0.00 0.00 0.00 47 1013.6
20260906004103 33 135 6.4 11.3 0.00 0.00 0.00 45 1013.4
20260906003103 33 0.0 1.6 0.00 0.00 0.00 41 1013.4
20260906002103 34 0.0 1.6 0.00 0.00 0.00 40 1013.5
20260906001103 35 90 1.6 1.6 0.00 0.00 0.00 40 1013.5
20260905235103 36 0.0 0.0 0.00 0.00 0.00 37 1013.4
20260905234103 36 90 1.6 1.6 0.00 0.00 0.00 36 1013.1
20260905233103 36 315 1.6 1.6 0.00 0.00 0.00 36 1013.1
20260905232103 36 45 3.2 4.8 0.00 0.00 0.00 36 1013.1